www.pogodaiklimat.ru

Погода и климат >> Архив погоды >> Россия >> Ростовская область >> Ростов-на-Дону


АРХИВ ПОГОДЫ в Ростове-на-Дону

Время (UTC), дата Ветер
(напр.,м/с)
 
Видим.   Явления Облачность Т
(С)
Тd
(С)
f
(%)
Тe
(С)
Тes
(С)
Комфортность P
(гПа)
Po
(гПа)
Тmin
(С)
Tmax
(С)
R
(мм)
R24
(мм)
S
(см)
18 6.11 н/о 3/0
[Ac trans]
+6.5 +0.4 65 1030.1 1019.7
21 6.11 н/о ясно +5.1 -0.1 69 1029.7 1019.3
00 7.11 н/о ясно +3.4 +0.3 80 1029.7 1019.2
03 7.11 н/о ясно +3.8 +0.8 81 1029.8 1019.3 +2.8
06 7.11 н/о 3/0
[Ci fib]
+7.7 +1.7 66 1029.9 1019.6
09 7.11 н/о 4/0
[Ac und]
+10.2 -0.4 48 1029.1 1018.9
12 7.11 н/о 6/0
[Ac und]
+9.8 0.0 50 1028.1 1017.9
15 7.11 н/о 4/0
[Ac und]
+7.4 -0.1 59 1028.1 1017.8 +10.5
18 7.11 н/о ясно +6.6 -0.3 61 1027.7 1017.4
21 7.11 н/о ясно +3.7 -0.7 73 1027.6 1017.2
00 8.11 н/о ясно +3.3 -0.9 74 1026.9 1016.5
03 8.11 н/о ясно +2.8 -1.2 75 1026.9 1016.4 +2.6
06 8.11 н/о ясно +5.4 -0.6 65 1027.1 1016.7 +2.1
09 8.11 н/о ясно +9.3 +2.4 62 1025.7 1015.5
12 8.11 н/о ясно +10.5 +2.2 56 1024.6 1014.4
15 8.11 н/о ясно +7.0 +2.4 73 1024.5 1014.2 +10.9
18 8.11 н/о дымка ясно +5.2 +1.1 75 1024.4 1014.1
21 8.11 н/о дымка ясно +3.0 +0.2 82 1024.4 1014.0
00 9.11 н/о дымка ясно +1.2 -0.4 89 1024.2 1013.7
03 9.11 н/о дымка ясно -0.4 -1.7 91 1024.3 1013.7 -0.5
06 9.11 н/о 4/0
[Ac trans]
+2.2 -0.6 82 1024.8 1014.3 -0.7
09 9.11 н/о 3/0
[Ci fib]
+4.3 +1.2 80 1024.7 1014.3
12 9.11 н/о ясно +7.8 +3.1 72 1023.9 1013.7
15 9.11 н/о ясно +4.1 +1.9 86 1024.1 1013.7 +8.0
18 9.11 н/о дымка 4/0
[Ac trans]
+2.1 +1.7 97 1024.9 1014.4
21 9.11 н/о туман ?/? +1.2 +1.2 100 1025.0 1014.5
00 10.11 н/о туман ?/? +1.2 +1.2 100 1024.8 1014.3
03 10.11 н/о туман ?/? +1.5 +1.5 100 1024.7 1014.2 +1.1
06 10.11 н/о морось {туман} ?/? +1.8 +1.8 100 1025.5 1015.0
09 10.11 н/о дымка {морось} 10/10 300 м
[St]
+2.5 +1.9 96 1025.1 1014.6
12 10.11 н/о 8/5 300 м
[St Ac trans]
+4.1 -0.1 74 1024.7 1014.3
15 10.11 н/о 8/0
[Ac trans]
+1.8 -0.6 84 1025.2 1014.7 +4.2
18 10.11 н/о дымка 8/0
[Ac trans]
+2.2 -1.2 78 1025.9 1015.4
21 10.11 н/о дымка 10/8 300 м
[St Ac und]
+2.5 +0.7 88 1025.9 1015.4
00 11.11 н/о дымка 9/8 300 м
[St Ac und]
+4.0 +2.7 91 1026.2 1015.8
03 11.11 н/о дымка 10/8 300 м
[St Ac und]
+3.6 +1.2 84 1027.5 1017.1 +1.8
06 11.11 н/о 10/4 600 м
[Sc Ac und]
+3.0 -0.6 77 1029.2 1018.7
09 11.11 н/о 10/6 600 м
[Sc Ac und]
+4.2 +0.3 76 1030.1 1019.7
12 11.11 н/о 10/6 600 м
[Sc Ac und]
+4.0 +0.2 76 1031.2 1020.7
15 11.11 н/о 10/8 600 м
[Sc Ac und]
+2.2 -2.1 73 1033.5 1022.9 +4.4
18 11.11 н/о слабый снег 10/6 600 м
[Sc Ac und]
+1.2 -5.5 61 1034.6 1024.0
21 11.11 н/о {снег} 10/6 600 м
[Sc Ac und]
-0.8 -7.6 60 1035.4 1024.7
00 12.11 н/о 10/6 600 м
[Sc Ac und]
-1.4 -8.1 60 1035.4 1024.7
03 12.11 н/о 10/5 600 м
[Sc Ac und]
-1.9 -9.8 55 1036.0 1025.3 -1.9 0.0
06 12.11 н/о 10/5 600 м
[Sc Ac und]
-2.4 -10.7 53 1036.9 1026.1 -2.5
09 12.11 н/о 10/5 600 м
[Sc Ac und]
-3.1 -9.1 63 1036.8 1026.0
12 12.11 н/о слабый снег 10/8 300 м
[Sc Ac und]
-3.6 -5.4 87 1036.7 1025.9
15 12.11 н/о слабый снег 10/8 300 м
[Sc Ac und]
-5.1 -6.3 91 1037.1 1026.2 -1.9 2
18 12.11 н/о слабый снег 10/8 300 м
[Sc Ac und]
-5.4 -6.3 93 1037.0 1026.1
21 12.11 н/о слабый снег 10/8 300 м
[Sc Ac und]
-5.6 -6.5 93 1036.7 1025.8
00 13.11 н/о слабый снег 10/8 600 м
[Sc Ac und]
-6.0 -7.1 92 1036.5 1025.6
03 13.11 н/о слабый снег 10/8 600 м
[Sc Ac und]
-6.0 -7.0 93 1035.9 1025.0 -6.2 12 8
06 13.11 н/о слабый снег 10/6 1000 м
[Sc Ac und]
-5.3 -6.4 92 1035.5 1024.6
09 13.11 н/о слабый снег 10/5 600 м
[Sc Ac und]
-3.8 -4.7 93 1034.9 1024.1
12 13.11 н/о слабый снег 10/6 600 м
[Sc Ac und]
-3.6 -4.1 96 1034.8 1024.0
15 13.11 н/о слабый снег 10/5 600 м
[Sc Ac und]
-3.2 -3.2 100 1035.0 1024.2 -3.2 12

 

Местоположение метеостанции Ростов-на-Дону (Ростовская область, Россия): широта 47.27 долгота 39.82 высота над уровнем моря 75 м.

В архиве по умолчанию представлена погода в Ростове-на-Дону за последнюю неделю. Архивные данные за месяц целиком и за предыдущие месяцы, начиная с января 2011 года, Вы можете получить, выбрав интересующий диапазон дат из раскрывающегося списка и нажав кнопку "Ввод!".


*Определитесь, кто Вы:
робот инопланетянин человек

Внимание! Время в таблицах - всемирное. Для получения местного времени необходимо прибавить поправку, которая в Ростове-на-Дону равна 3 ч.

Смотрите также архив погоды в соседних городах и на ближайших метеорологических станциях:

Погода в Аэропорту Платов (Ростовская область, Россия) (26 км)
Погода в Шахтах (Ростовская область, Россия) (59 км)
Погода в Зерноград (Ростовская область, Россия) (60 км)
Погода в Таганроге (Ростовская область, Россия) (70 км)
Погода в Матвеевом Кургане (Ростовская область, Россия) (78 км)
Погода в Семикаракорске (Ростовская область, Россия) (81 км)
Погода в Маргаритово (Ростовская область, Россия) (81 км)
Погода в Кущевской (Краснодарский край, Россия) (84 км)
Погода в Константиновске (Ростовская область, Россия) (102 км)
Погода в Староминская (Краснодарский край, Россия) (102 км)

Пояснения к столбцам:

Ветер - указаны скорость ветра в м/с - средняя за 10 мин, порывы в срок и между сроками (в фигурных скобках) и направление, откуда дует ветер: С - северный, СВ - северо-восточный, В - восточный, ЮВ - юго-восточный, Ю - южный, ЮЗ - юго-западный, З - западный, СЗ - северо-западный.
Видимость - горизонтальная дальность видимости в метрах или километрах. При видимости от 1 до 10 км при отсутствии осадков обычно наблюдается дымка, при ухудшении видимости до 1 км и менее - туман. В сухую погоду видимость может ухудшаться дымом, пылью или мглою.
Явления - указаны атмосферные явления, наблюдавшиеся в срок или в последний час перед сроком; фигурными скобками обозначены явления, наблюдавшиеся между сроками (за 1-3 часа до срока); квадратными скобками обозначены град или гололедные отложения с указанием их диаметра в мм.
Облачность - указаны через наклонную черту общая и нижняя облачность в баллах и высота нижней границы облаков в метрах; квадратными скобками обозначены формы облаков: Ci - перистые, Cs - перисто-слоистые, Cc - перисто-кучевые, Ac - высококучевые, As - высокослоистые, Sc - слоисто-кучевые, Ns - слоисто-дождевые, Cu - кучевые, Cb - кучево-дождевые. Подробнее классификацию облаков см. в Атласе облаков (PDF).
T - Температура воздуха - температура, измеренная на высоте 2 м над землей.
Td - Температура точки росы - температура, при понижении до которой содержащийся в воздухе водяной пар достигнет насыщения.
f - Относительная влажность воздуха - влажноcть воздуха, измеренная на высоте 2 м над землей.
Te - Эффективная температура - температура, которую ощущает одетый по сезону человек в тени. Характеристика душности погоды. При расчете учитывается влияние влажности воздуха и скорости ветра на теплоощущения человека.
Tes - Эффективная температура на солнце - температура, которую ощущает человек, с поправкой на солнечный нагрев. Характеристика знойности погоды. Зависит от высоты солнца над горизонтом, облачности и скорости ветра. Ночью, в пасмурную погоду, а также при ветре 12 м/с и более поправка равна нулю.
P - Атмосферное давление - приведенное к уровню моря атмосферное давление.
Po - Атмосферное давление - измеренное на уровне метеостанции атмосферное давление.
Tmin - Минимальная температура - минимум температуры воздуха на высоте 2 м над землей.
Tmax - Максимальная температура - максимум температуры воздуха на высоте 2 м над землей.
R - Количество осадков - Количество выпавших осадков за период времени, мм. При наведении курсора мыши на число - период времени, за который выпало указанное количество осадков.
R24 - Количество осадков - Количество выпавших осадков за 24 часа, мм.
S - Снежный покров - Высота снежного покрова, см. При наведении курсора мыши на число - состояние снежного покрова и степень покрытия местности в баллах.